Hourly Data Report for June 28, 2011

HALIFAX STANFIELD INT'L A
NOVA SCOTIA

44°52'48.060" N
63°30'00.050" W
145.40 m
8202250
71395
YHZ

Download Data

Hourly Data (June 2011)
Hourly Data Report for June 28, 2011
TIME
LST
Temp Definition
°C
Dew Point Definition
°C
Rel Hum Definition
%
Precip. Amount Definition
mm

Wind Dir Definition
10's deg

Wind Spd Definition
km/h
Visibility Definition
km
Stn Press Definition
kPa
Hmdx Definition


Wind Chill Definition


Weather Definition


00:00 15.6 14.2 91   23 6 24.1 99.67     Mainly Clear
01:00 14.5 13.5 94     0 24.1 99.67     Clear
02:00 14.8 13.4 91   31 7 24.1 99.67     Clear
03:00 14.4 13.0 91   28 9 24.1 99.66     Clear
04:00 13.7 12.8 94   29 11 24.1 99.65     Clear
05:00 14.0 13.0 94   30 11 24.1 99.66     Clear
06:00 16.3 13.6 84   32 4 24.1 99.71     Clear
07:00 17.6 13.6 77   32 11 24.1 99.72     Clear
08:00 19.3 14.5 74   28 6 24.1 99.77     Clear
09:00 21.4 13.5 61   33 9 24.1 99.76     Mainly Clear
10:00 23.1 13.2 54   31 7 24.1 99.75 26   Mainly Clear
11:00 25.0 11.7 43   29 9 24.1 99.73 27   Mostly Cloudy
12:00 26.2 11.6 40   31 9 24.1 99.72 28   Mostly Cloudy
13:00 26.0 11.3 40   28 15 24.1 99.71 28   Cloudy
14:00 26.5 10.8 37   31 15 24.1 99.70 28   Cloudy
15:00 26.8 11.3 38   35 9 24.1 99.69 29   Mostly Cloudy
16:00 26.4 10.1 36   35 7 24.1 99.66 28   Mostly Cloudy
17:00 25.9 11.4 40   31 9 24.1 99.66 28   Cloudy
18:00 23.0 13.6 55   21 15 24.1 99.68 26   Mostly Cloudy
19:00 21.4 13.5 61   21 15 24.1 99.72     Mostly Cloudy
20:00 18.1 14.1 77   18 15 24.1 99.73     Mostly Cloudy
21:00 17.1 12.0 72   19 15 24.1 99.75     Mostly Cloudy
22:00 16.3 11.5 73   19 20 24.1 99.77     Mostly Cloudy
23:00 14.9 11.4 80   18 17 24.1 99.76     Mostly Cloudy

Notes on Data Quality.

Legend

  • E = Estimated
  • M = Missing
  • NA = Not Available*
  • [empty] = Indicates an unobserved value
Date modified: